{"data":{"norad_id":57654,"intl_designator":"2023-123A","name":"GAOFEN-12 04","alt_names":[],"object_type":"PAYLOAD","status":"ACTIVE","operator":null,"country":"PRC","launch_date":"2023-08-20","launch_site_code":"JSC","launch_vehicle":null,"mission":null,"orbit_class":"UNKNOWN","rcs_meters":null,"size_class":null,"mass_kg":null,"dimensions":null,"purposes":["earth_obs"],"wikipedia_slug":null,"has_3d_model":false,"image_url":null,"decayed_at":null,"tle_current":{"epoch":"2026-05-25T05:18:27.968256Z","epoch_age_seconds":62858,"freshness":"FRESH","line1":"1 57654U 23123A   26145.22115704  .00000862  00000+0  12033-3 0  9995","line2":"2 57654  97.9131  63.5686 0001672  92.5887 267.5516 14.80176248149230","mean_motion":14.80176248,"eccentricity":0.0001672,"inclination_deg":97.9131,"raan_deg":63.5686,"arg_perigee_deg":92.5887,"mean_anomaly_deg":267.5516,"bstar":0.00012033,"rev_number":14923,"period_min":97.285711883684,"perigee_km":627.59630618369,"apogee_km":629.9394151691,"semimajor_km":7006.9048606764,"source":"CELESTRAK","updated_at":"2026-05-25T13:38:12.835593Z"}}}